Temperature
13 13 13 13 13 13 14 14 14 14 14 14 14 15 15 15 15 15 15 15 16 16 16 16 16 16 16 16 16 16 16 16 16 16 16 16 16 16
13 13 13 13 13 13 13 13 14 14 14 14 14 14 15 15 15 15 15 15 15 15 15 16 16 16 16 16 16 16 16 16 16 16 16 15 15 15
13 13 13 13 13 13 13 13 13 13 14 14 14 14 14 14 14 14 15 15 15 15 15 15 15 15 15 15 15 15 15 16 15 15 15 15 15 15
13 13 13 13 13 13 13 13 13 13 14 14 14 14 14 14 14 14 14 14 15 15 15 15 15 15 15 15 15 15 15 15 15 15 15 15 15 15
13 13 13 13 13 13 13 13 13 13 13 14 14 14 14 14 14 14 14 14 14 14 14 14 15 15 15 15 15 15 15 15 15 15 15 15 15 15
13 13 13 13 13 13 13 13 13 13 13 13 13 13 13 14 14 14 14 14 14 14 14 14 14 14 14 14 14 14 14 14 15 15 15 15 15 15
13 13 13 13 13 13 13 13 13 13 13 13 13 13 13 13 13 13 13 14 14 14 14 14 14 14 14 14 14 14 14 14 14 14 14 14 14 14
13 13 13 13 13 13 13 13 13 13 13 13 13 13 13 13 13 13 13 13 13 13 13 14 14 14 14 14 14 14 14 14 14 14 14 14 14 14
13 13 13 13 13 13 13 13 13 13 13 13 13 13 13 13 13 13 13 13 13 13 13 13 13 13 13 14 14 14 14 13 13 13 14 14 14 14
13 13 13 13 13 13 13 13 13 13 13 13 13 13 13 13 13 13 13 12 13 12 12 13 13 13 13 13 13 13 13 13 13 13 13 13 13 13
13 13 13 13 13 13 13 13 13 13 13 13 13 13 13 13 12 12 12 12 12 12 12 12 12 13 13 13 13 13 13 13 13 13 13 13 13 13
13 13 13 13 13 13 13 13 13 13 12 12 12 12 12 12 12 12 12 12 12 12 12 12 12 12 12 12 13 13 12 12 12 13 13 13 13 13
13 13 13 13 13 12 12 12 12 12 12 12 12 12 12 12 12 12 12 12 12 12 12 11 11 11 11 12 12 12 12 12 12 12 12 12 12 12
13 13 12 12 12 12 12 12 12 12 12 12 12 12 12 12 12 11 11 11 11 11 11 11 11 11 11 11 11 12 12 12 12 12 12 12 12 12
12 12 12 12 12 12 12 12 12 12 12 11 11 11 11 11 11 11 11 11 11 11 11 11 11 11 11 11 11 11 11 11 11 11 11 11 11 11
12 12 12 12 11 11 11 11 11 11 11 11 11 11 11 10 10 10 11 11 11 11 10 10 10 10 10 10 10 10 10 10 10 10 10 11 10 10
12 12 11 11 11 11 11 11 11 10 10 10 10 10 10 10 10 10 10 10 10 10 10 10 10 10 10 10 10 10 10 9 9 10 10 10 10 10
12 11 11 11 11 11 10 10 10 10 10 10 10 10 9 9 9 9 9 9 9 9 9 9 9 10 9 9 9 9 9 9 9 9 9 9 9 10
11 11 11 11 10 10 10 9 9 9 9 9 9 9 9 9 8 8 8 8 8 8 8 8 8 8 8 8 8 8 8 8 8 8 8 8 8 9
11 11 10 10 10 9 9 9 9 9 8 8 8 8 8 8 8 8 7 7 7 7 7 7 7 7 7 7 7 7 7 7 7 7 8 8 8 8
10 10 10 9 9 9 9 8 8 8 8 8 7 7 7 7 7 7 7 7 6 6 7 7 6 6 6 6 6 6 7 6 6 6 6 6 7 7
10 10 9 9 9 8 8 8 8 7 7 7 7 7 6 6 6 6 6 6 6 6 5 5 5 5 5 5 5 5 6 6 6 5 5 5 5 5
9 9 9 8 8 8 7 7 7 7 7 6 6 6 6 6 6 5 5 5 5 5 5 4 4 4 4 4 4 4 4 5 5 5 5 5 4 4
Wind_Speed
2 2 2 1 2 2 2 3 3 1 1 2 1 1 1 1 2 3 4 7 8 9 10 11 11 10 11 12 12 12 12 13 14 15 15 15 15 15
2 2 2 1 1 1 2 2 3 3 2 2 2 2 1 1 2 2 3 5 7 9 10 11 11 11 11 11 11 11 11 11 12 12 13 13 14 14
1 2 2 1 1 1 2 2 2 3 2 2 1 1 0 1 1 1 2 3 5 8 10 11 11 11 11 11 10 10 11 11 11 12 13 13 14 15
1 1 1 1 1 1 2 2 2 2 3 2 1 1 1 2 2 1 1 2 4 7 9 10 10 11 11 11 11 10 10 11 11 11 12 13 14 15
2 2 2 2 2 1 2 2 2 2 2 2 2 1 1 0 0 0 0 1 3 4 6 8 9 10 10 11 11 11 11 12 12 12 12 13 14 15
1 2 2 3 3 3 2 2 2 2 2 1 1 1 1 0 1 1 0 1 1 1 2 4 6 7 9 10 11 11 12 12 13 13 13 13 14 14
0 1 1 2 3 4 3 3 3 2 2 1 1 0 1 0 1 1 1 1 1 0 0 1 2 3 5 8 10 11 12 12 13 13 13 13 14 15
1 1 1 1 1 3 3 5 5 4 3 2 2 2 2 2 1 1 1 1 1 1 0 1 1 2 3 5 8 11 12 13 13 13 13 14 14 14
1 1 1 1 0 1 1 1 2 4 5 4 4 3 3 3 3 2 2 2 2 2 0 2 1 2 3 5 8 10 11 11 12 12 13 13 13 14
2 2 2 2 1 2 2 1 1 1 2 2 3 4 3 3 4 3 3 2 1 1 2 2 1 2 3 3 6 7 8 9 10 11 11 12 13 13
1 1 2 1 2 3 3 2 0 1 1 1 1 1 1 1 2 3 2 2 1 1 1 2 1 1 2 2 3 5 7 8 8 9 10 11 12 11
1 1 1 1 1 3 4 3 2 1 0 1 2 3 2 2 2 2 3 2 1 1 1 1 1 0 2 2 2 2 3 5 7 8 9 9 9 6
1 1 1 0 2 3 4 3 3 2 2 2 2 2 2 2 2 1 1 2 2 2 2 2 1 1 1 2 2 2 1 2 2 4 6 8 8 6
2 2 1 1 3 4 3 3 4 4 3 3 2 2 1 1 1 2 1 1 1 2 1 1 1 2 2 1 2 2 2 2 2 2 3 5 6 8
2 3 2 3 4 4 5 5 4 3 3 3 2 0 0 1 1 2 2 3 3 4 3 2 0 1 2 2 2 2 2 2 2 2 3 3 3 3
2 3 5 6 5 5 4 4 3 3 3 2 1 1 1 2 2 2 2 2 2 3 5 6 4 1 0 1 1 2 2 2 3 3 3 3 2 2
4 3 3 3 3 3 3 3 3 3 3 2 2 2 2 3 2 2 2 2 2 2 4 4 5 3 1 1 1 1 2 2 3 3 3 4 4 3
6 4 3 3 3 3 3 2 2 2 2 3 3 3 3 3 3 3 3 3 3 2 2 3 4 4 4 3 2 1 2 2 3 4 3 4 5 4
5 4 4 4 3 3 3 3 2 2 2 3 3 3 3 3 3 3 3 3 2 2 2 3 3 2 2 3 4 3 2 3 4 4 3 3 5 6
4 5 5 4 4 4 4 3 3 3 3 3 3 3 3 3 3 3 2 2 2 2 2 3 3 2 1 3 3 4 4 3 3 4 4 4 5 7
5 5 5 5 4 4 4 4 4 3 3 3 3 3 2 3 3 2 2 2 2 2 2 2 4 5 3 1 3 4 4 6 5 4 5 5 5 5
6 6 5 5 5 5 5 5 4 4 4 3 3 2 2 2 2 2 1 1 1 1 1 2 4 3 2 2 3 5 6 6 7 8 7 6 4 4
7 6 6 6 5 5 5 6 6 4 4 3 3 2 2 2 1 1 1 1 0 1 1 2 3 2 2 2 3 4 6 7 6 6 6 9 11 13
Wind_Direction
191 184 184 203 186 175 166 157 151 157 277 280 283 276 269 200 205 199 202 210 212 212 209 208 211 212 214 217 219 222 222 220 219 221 222 222 222 219
195 176 197 218 209 184 173 168 165 165 205 248 244 251 240 212 196 195 210 218 221 220 215 213 213 214 216 218 221 221 222 220 220 224 225 225 225 225
203 183 212 205 193 193 171 159 168 160 185 261 262 260 185 197 237 243 211 219 228 225 220 216 214 214 215 214 217 218 219 220 223 226 228 228 229 228
229 181 200 177 178 185 168 175 182 177 173 214 256 271 237 213 204 216 216 226 232 231 225 221 217 214 214 214 216 219 220 223 228 232 233 234 233 233
210 190 193 160 171 189 181 182 193 181 168 183 225 256 264 216 125 294 220 263 247 232 219 216 216 218 220 220 220 222 225 227 229 232 236 239 238 236
213 201 197 185 193 190 183 185 175 156 155 165 194 235 251 285 122 145 323 323 282 254 211 211 218 223 225 228 227 227 229 230 232 234 237 239 241 241
279 241 228 207 198 191 182 182 164 157 155 157 181 197 272 195 186 187 203 309 307 270 183 232 214 228 237 237 234 232 233 233 233 234 238 241 243 244
245 285 284 271 215 196 186 179 173 169 175 174 186 204 233 225 194 172 153 107 292 289 99 280 218 240 242 239 239 236 236 236 236 236 239 242 244 245
225 248 277 281 206 163 184 157 193 201 188 175 188 210 208 210 183 182 190 190 224 245 133 257 243 253 255 250 241 237 237 238 239 240 241 243 246 248
224 212 218 266 242 188 168 145 250 273 233 194 194 216 221 214 197 192 188 181 254 264 174 222 249 251 273 266 255 243 240 241 243 245 247 248 248 250
286 218 196 230 249 177 151 152 102 323 308 160 167 205 236 216 166 140 146 148 250 271 193 183 243 275 281 280 277 267 260 256 258 258 256 255 254 254
335 330 239 204 217 157 149 153 165 250 80 68 50 39 49 59 86 142 167 166 181 248 225 171 211 341 311 296 302 314 296 282 277 274 271 267 261 254
192 280 301 230 113 140 152 161 184 171 135 112 82 48 41 46 35 45 140 162 172 226 224 172 193 180 211 286 309 303 302 305 300 285 278 274 266 245
185 203 214 112 102 103 119 130 123 110 102 95 86 64 45 23 1 8 30 79 163 217 241 164 183 193 196 241 277 307 316 305 293 281 288 293 278 263
173 174 149 114 97 84 84 96 96 97 102 100 100 68 332 342 12 14 20 34 38 38 38 46 135 217 199 219 245 279 306 307 305 303 300 287 274 265
142 121 107 95 86 80 71 66 73 100 116 118 114 55 41 48 37 28 32 23 39 12 11 19 17 22 280 257 240 278 293 300 320 317 308 299 289 277
142 108 97 95 92 77 68 63 61 72 85 85 93 79 62 58 39 28 44 52 55 16 356 358 3 11 324 248 311 303 311 313 313 318 315 305 291 280
139 139 146 149 148 143 127 98 75 78 81 89 90 88 85 81 66 50 54 67 66 35 8 354 1 11 11 7 357 325 333 314 310 310 306 301 299 295
143 158 165 164 158 152 144 132 121 100 91 94 95 92 91 85 80 67 60 62 55 36 12 7 18 34 11 325 322 6 349 321 320 314 300 287 288 295
163 168 169 165 157 152 146 135 123 106 96 95 93 89 89 90 84 73 64 66 57 42 20 13 12 1 289 270 285 311 335 323 321 314 307 295 285 288
171 167 165 160 156 151 146 139 133 125 116 109 102 97 96 97 95 89 79 58 56 47 18 341 311 315 298 327 316 312 315 320 312 299 307 310 311 312
171 168 165 160 156 152 147 141 134 129 125 118 115 110 105 105 111 106 98 81 46 359 324 318 328 346 4 344 312 307 312 320 322 319 309 296 297 300
172 168 165 162 158 152 149 146 143 142 141 138 132 130 126 124 128 127 119 95 23 342 333 331 340 345 330 311 303 306 314 320 322 322 314 310 301 293
Height
1483 1483 1484 1485 1486 1487 1488 1488 1490 1490 1491 1491 1493 1494 1495 1496 1497 1499 1500 1502 1504 1505 1507 1509 1510 1512 1514 1516 1518 1520 1522 1523 1525 1527 1528 1530 1532 1533
1482 1482 1483 1484 1484 1485 1486 1487 1488 1489 1489 1490 1491 1492 1493 1494 1495 1497 1497 1499 1501 1503 1504 1506 1508 1509 1511 1513 1514 1516 1518 1520 1521 1523 1525 1526 1528 1529
1481 1481 1482 1482 1483 1484 1485 1486 1486 1488 1488 1489 1490 1491 1491 1492 1494 1495 1495 1497 1498 1500 1502 1503 1505 1506 1508 1509 1511 1513 1514 1516 1517 1519 1521 1522 1523 1525
1480 1480 1480 1481 1481 1482 1483 1484 1485 1486 1487 1487 1488 1489 1490 1491 1492 1493 1494 1495 1496 1497 1499 1500 1502 1503 1505 1506 1507 1509 1510 1511 1513 1515 1516 1518 1519 1520
1479 1479 1479 1480 1480 1481 1482 1483 1483 1484 1485 1486 1486 1487 1488 1489 1490 1491 1492 1493 1494 1495 1496 1497 1499 1500 1501 1503 1504 1505 1506 1508 1509 1510 1511 1513 1514 1515
1479 1479 1479 1479 1479 1480 1481 1481 1482 1483 1483 1484 1485 1486 1487 1487 1488 1489 1490 1490 1491 1492 1493 1494 1496 1497 1498 1499 1500 1501 1502 1503 1504 1506 1507 1508 1509 1510
1478 1478 1478 1478 1479 1479 1480 1480 1481 1481 1482 1482 1483 1484 1485 1485 1486 1487 1487 1488 1489 1489 1490 1491 1492 1493 1494 1495 1496 1497 1498 1499 1500 1501 1502 1503 1504 1505
1478 1478 1478 1478 1478 1478 1479 1479 1479 1480 1480 1481 1481 1482 1483 1484 1484 1485 1485 1486 1486 1487 1487 1488 1489 1490 1491 1492 1492 1493 1494 1495 1496 1496 1497 1498 1498 1499
1477 1477 1477 1477 1477 1477 1478 1478 1478 1478 1479 1480 1480 1480 1481 1482 1482 1482 1483 1483 1484 1484 1485 1485 1486 1487 1487 1488 1489 1490 1490 1491 1491 1492 1492 1493 1493 1494
1477 1476 1476 1476 1476 1476 1476 1476 1477 1477 1477 1478 1479 1479 1479 1480 1480 1481 1481 1481 1482 1482 1482 1483 1483 1483 1484 1485 1485 1486 1486 1487 1487 1487 1488 1488 1488 1488
1475 1475 1475 1475 1475 1475 1475 1475 1475 1475 1476 1476 1477 1477 1477 1478 1478 1478 1478 1479 1479 1479 1480 1480 1480 1480 1481 1481 1482 1482 1482 1482 1483 1483 1483 1483 1483 1483
1474 1474 1473 1473 1473 1474 1474 1474 1474 1474 1474 1475 1475 1475 1476 1476 1476 1476 1476 1477 1477 1477 1477 1478 1478 1478 1478 1478 1479 1479 1479 1478 1478 1478 1478 1478 1478 1477
1472 1472 1472 1472 1472 1472 1472 1472 1472 1472 1473 1473 1473 1474 1474 1474 1474 1474 1474 1475 1475 1475 1476 1476 1475 1475 1476 1475 1475 1475 1475 1474 1474 1474 1473 1473 1473 1472
1470 1471 1471 1471 1470 1471 1471 1471 1471 1471 1471 1471 1472 1472 1472 1473 1473 1472 1473 1473 1473 1473 1473 1473 1472 1472 1472 1472 1471 1471 1471 1471 1470 1469 1469 1468 1467 1467
1468 1469 1469 1469 1469 1469 1469 1469 1469 1469 1469 1470 1470 1470 1471 1471 1471 1471 1470 1470 1470 1470 1470 1470 1470 1469 1469 1468 1468 1467 1467 1466 1466 1465 1464 1463 1462 1462
1466 1466 1467 1467 1467 1467 1467 1467 1467 1467 1468 1468 1468 1468 1468 1468 1468 1468 1468 1468 1468 1468 1467 1467 1467 1466 1466 1465 1464 1463 1463 1462 1461 1460 1459 1458 1458 1457
1463 1463 1464 1464 1464 1464 1464 1465 1465 1465 1465 1466 1466 1466 1466 1466 1466 1466 1466 1466 1465 1465 1465 1464 1464 1463 1463 1462 1461 1460 1459 1458 1457 1456 1455 1453 1453 1452
1459 1459 1460 1460 1461 1461 1462 1462 1462 1463 1463 1463 1463 1464 1464 1464 1464 1464 1463 1463 1463 1462 1462 1461 1461 1460 1460 1459 1459 1457 1456 1455 1453 1452 1450 1449 1447 1447
1455 1455 1456 1457 1458 1458 1459 1459 1460 1460 1460 1461 1461 1461 1461 1461 1461 1461 1461 1460 1460 1459 1459 1458 1458 1457 1456 1455 1455 1455 1453 1451 1449 1447 1446 1444 1442 1441
1451 1452 1453 1454 1455 1455 1456 1457 1457 1458 1458 1458 1458 1458 1458 1458 1458 1458 1458 1457 1457 1456 1456 1455 1455 1454 1453 1452 1450 1449 1449 1447 1444 1442 1441 1439 1437 1436
1447 1448 1449 1451 1452 1453 1453 1454 1455 1455 1456 1456 1456 1456 1456 1456 1456 1455 1455 1455 1454 1453 1453 1452 1451 1451 1449 1448 1447 1445 1444 1443 1441 1439 1436 1434 1431 1429
1443 1444 1446 1447 1448 1449 1450 1451 1452 1452 1453 1453 1453 1453 1453 1453 1453 1452 1452 1452 1451 1450 1449 1449 1448 1447 1446 1444 1442 1440 1439 1438 1437 1435 1433 1431 1428 1424
1438 1440 1442 1443 1444 1446 1447 1448 1449 1449 1450 1450 1450 1450 1450 1450 1450 1449 1449 1448 1448 1447 1446 1445 1444 1443 1442 1440 1438 1436 1434 1432 1431 1429 1428 1426 1424 1422